Hourly Weather Kiwajny

Today, 27 July, Tuesday

Time Temperature Precipitation Wind Pressure Humidity
00:00 +18°C° 0.1 mm 3 mps 746 mmHg 95%
01:00 +18°C° 0.1 mm 2 mps 746 mmHg 96%
02:00 +17°C° 0 mm 2 mps 745 mmHg 97%
03:00 +17°C° 0 mm 2 mps 745 mmHg 97%
04:00 +17°C° 0 mm 2 mps 745 mmHg 97%
05:00 +18°C° 0 mm 2 mps 745 mmHg 94%
06:00 +20°C° 0 mm 2 mps 745 mmHg 91%
07:00 +21°C° 0 mm 2 mps 745 mmHg 87%
08:00 +23°C° 0.2 mm 2 mps 745 mmHg 81%
09:00 +25°C° 0.2 mm 2 mps 745 mmHg 75%
10:00 +26°C° 0.2 mm 2 mps 745 mmHg 68%
11:00 +27°C° 0.7 mm 3 mps 745 mmHg 65%
12:00 +27°C° 0.7 mm 3 mps 745 mmHg 63%
13:00 +28°C° 0.7 mm 3 mps 745 mmHg 60%
14:00 +28°C° 0.1 mm 3 mps 745 mmHg 58%
15:00 +28°C° 0.1 mm 2 mps 745 mmHg 56%
16:00 +29°C° 0.1 mm 2 mps 745 mmHg 55%
17:00 +26°C° 0.9 mm 2 mps 745 mmHg 67%
18:00 +24°C° 0.9 mm 1 mps 745 mmHg 79%
19:00 +21°C° 0.9 mm 1 mps 745 mmHg 91%
20:00 +21°C° 0.1 mm 1 mps 746 mmHg 90%
21:00 +20°C° 0.1 mm 1 mps 746 mmHg 89%
22:00 +20°C° 0.1 mm 1 mps 746 mmHg 89%
23:00 +20°C° 0.1 mm 1 mps 746 mmHg 89%

Tomorrow, 28 July, Wednesday

Time Temperature Precipitation Wind Pressure Humidity
00:00 +19°C° 0.1 mm 1 mps 746 mmHg 89%
01:00 +19°C° 0.1 mm 1 mps 746 mmHg 90%
02:00 +18°C° 0.1 mm 2 mps 746 mmHg 90%
03:00 +18°C° 0.1 mm 2 mps 746 mmHg 90%
04:00 +18°C° 0.1 mm 2 mps 745 mmHg 90%
05:00 +19°C° 0 mm 2 mps 746 mmHg 87%
06:00 +20°C° 0 mm 3 mps 746 mmHg 83%
07:00 +22°C° 0 mm 3 mps 746 mmHg 80%
08:00 +24°C° 0.1 mm 3 mps 746 mmHg 73%
09:00 +25°C° 0.1 mm 3 mps 746 mmHg 66%
10:00 +26°C° 0.1 mm 4 mps 746 mmHg 59%
11:00 +26°C° 0 mm 3 mps 746 mmHg 58%
12:00 +26°C° 0 mm 3 mps 746 mmHg 57%
13:00 +26°C° 0 mm 2 mps 746 mmHg 56%
14:00 +26°C° 0 mm 2 mps 746 mmHg 60%
15:00 +25°C° 0 mm 2 mps 745 mmHg 63%
16:00 +24°C° 0 mm 2 mps 745 mmHg 67%
17:00 +24°C° 0 mm 1 mps 745 mmHg 71%
18:00 +23°C° 0 mm 1 mps 745 mmHg 74%
19:00 +22°C° 0 mm 1 mps 745 mmHg 77%
20:00 +21°C° 0.1 mm 2 mps 745 mmHg 79%
21:00 +20°C° 0.1 mm 2 mps 745 mmHg 81%
22:00 +19°C° 0.1 mm 3 mps 745 mmHg 83%
23:00 +19°C° 0.2 mm 3 mps 745 mmHg 86%

Day after tomorrow, 29 July, Thursday

Time Temperature Precipitation Wind Pressure Humidity
00:00 +18°C° 0.2 mm 3 mps 745 mmHg 89%
01:00 +18°C° 0.2 mm 3 mps 744 mmHg 93%
02:00 +18°C° 0 mm 3 mps 745 mmHg 93%
03:00 +17°C° 0 mm 3 mps 745 mmHg 94%
04:00 +17°C° 0 mm 3 mps 745 mmHg 94%
05:00 +18°C° 0 mm 3 mps 745 mmHg 90%
06:00 +19°C° 0 mm 4 mps 745 mmHg 86%
07:00 +20°C° 0 mm 4 mps 745 mmHg 82%
08:00 +21°C° 0 mm 4 mps 745 mmHg 75%
09:00 +22°C° 0 mm 5 mps 745 mmHg 68%
10:00 +23°C° 0 mm 5 mps 745 mmHg 61%
11:00 +25°C° 0 mm 5 mps 744 mmHg 57%
12:00 +25°C° 0 mm 5 mps 744 mmHg 52%
13:00 +26°C° 0 mm 5 mps 744 mmHg 48%
14:00 +26°C° 0 mm 5 mps 744 mmHg 49%
15:00 +26°C° 0 mm 4 mps 743 mmHg 51%
16:00 +26°C° 0 mm 4 mps 743 mmHg 52%
17:00 +23°C° 0 mm 4 mps 743 mmHg 59%
18:00 +21°C° 0 mm 3 mps 743 mmHg 66%
19:00 +20°C° 0 mm 3 mps 744 mmHg 73%
20:00 +19°C° 0 mm 3 mps 744 mmHg 75%
21:00 +18°C° 0 mm 2 mps 744 mmHg 78%
22:00 +17°C° 0 mm 2 mps 744 mmHg 81%
23:00 +16°C° 0 mm 2 mps 743 mmHg 81%

30 July, Friday

Time Temperature Precipitation Wind Pressure Humidity
00:00 +16°C° 0 mm 3 mps 743 mmHg 81%
01:00 +14°C° 0 mm 3 mps 743 mmHg 81%
02:00 +14°C° 0 mm 3 mps 743 mmHg 79%
03:00 +13°C° 0 mm 3 mps 743 mmHg 77%
04:00 +13°C° 0 mm 3 mps 743 mmHg 75%
05:00 +14°C° 0 mm 4 mps 743 mmHg 70%
06:00 +17°C° 0 mm 4 mps 743 mmHg 66%
07:00 +17°C° 0 mm 5 mps 743 mmHg 61%
08:00 +19°C° 0 mm 5 mps 743 mmHg 56%
09:00 +21°C° 0 mm 6 mps 743 mmHg 51%
10:00 +22°C° 0 mm 6 mps 743 mmHg 46%
11:00 +22°C° 0 mm 6 mps 743 mmHg 44%
12:00 +23°C° 0 mm 6 mps 743 mmHg 43%
13:00 +24°C° 0 mm 6 mps 742 mmHg 41%
14:00 +25°C° 0 mm 5 mps 742 mmHg 44%
15:00 +23°C° 0 mm 5 mps 742 mmHg 48%
16:00 +23°C° 0 mm 4 mps 742 mmHg 51%
17:00 +21°C° 0 mm 3 mps 742 mmHg 56%
18:00 +20°C° 0 mm 3 mps 742 mmHg 61%
19:00 +19°C° 0 mm 2 mps 742 mmHg 66%
20:00 +18°C° 0 mm 2 mps 742 mmHg 69%
21:00 +17°C° 0 mm 2 mps 742 mmHg 72%
22:00 +16°C° 0 mm 1 mps 742 mmHg 75%
23:00 +15°C° 0 mm 2 mps 742 mmHg 76%

31 July, Saturday

Time Temperature Precipitation Wind Pressure Humidity
00:00 +15°C° 0 mm 2 mps 742 mmHg 76%
01:00 +15°C° 0 mm 2 mps 742 mmHg 77%
02:00 +14°C° 0 mm 2 mps 742 mmHg 77%
03:00 +14°C° 0 mm 2 mps 741 mmHg 77%
04:00 +14°C° 0 mm 2 mps 741 mmHg 77%
05:00 +16°C° 0 mm 3 mps 741 mmHg 72%
06:00 +17°C° 0 mm 3 mps 741 mmHg 67%
07:00 +19°C° 0 mm 4 mps 741 mmHg 61%
08:00 +21°C° 0 mm 4 mps 741 mmHg 57%
09:00 +22°C° 0 mm 4 mps 741 mmHg 52%
10:00 +25°C° 0 mm 4 mps 741 mmHg 47%
11:00 +25°C° 0 mm 5 mps 741 mmHg 47%
12:00 +26°C° 0 mm 5 mps 740 mmHg 47%
13:00 +26°C° 0 mm 6 mps 740 mmHg 47%
14:00 +24°C° 0.2 mm 6 mps 740 mmHg 53%
15:00 +23°C° 0.2 mm 6 mps 740 mmHg 58%
16:00 +22°C° 0.2 mm 6 mps 740 mmHg 64%
17:00 +21°C° 0.1 mm 5 mps 740 mmHg 67%
18:00 +20°C° 0.1 mm 4 mps 740 mmHg 70%
19:00 +18°C° 0.1 mm 3 mps 740 mmHg 72%
20:00 +18°C° 0 mm 3 mps 740 mmHg 73%
21:00 +17°C° 0 mm 3 mps 741 mmHg 75%
22:00 +16°C° 0 mm 3 mps 741 mmHg 76%
23:00 +14°C° 0 mm 4 mps 741 mmHg 78%

1 August, Sunday

Time Temperature Precipitation Wind Pressure Humidity
00:00 +14°C° 0 mm 4 mps 741 mmHg 79%
01:00 +14°C° 0 mm 4 mps 741 mmHg 81%
02:00 +13°C° 0 mm 4 mps 741 mmHg 84%
03:00 +13°C° 0 mm 5 mps 741 mmHg 87%
04:00 +13°C° 0 mm 5 mps 741 mmHg 89%
05:00 +14°C° 0 mm 5 mps 741 mmHg 84%
06:00 +15°C° 0 mm 6 mps 741 mmHg 78%
07:00 +16°C° 0 mm 7 mps 742 mmHg 73%
08:00 +17°C° 0 mm 7 mps 742 mmHg 65%
09:00 +18°C° 0 mm 7 mps 742 mmHg 58%
10:00 +20°C° 0 mm 7 mps 742 mmHg 51%
11:00 +21°C° 0 mm 7 mps 742 mmHg 48%
12:00 +22°C° 0 mm 6 mps 742 mmHg 44%
13:00 +23°C° 0 mm 6 mps 742 mmHg 41%
14:00 +23°C° 0 mm 5 mps 742 mmHg 44%
15:00 +22°C° 0 mm 4 mps 742 mmHg 47%
16:00 +22°C° 0 mm 3 mps 741 mmHg 50%
17:00 +21°C° 0 mm 2 mps 741 mmHg 54%
18:00 +20°C° 0 mm 2 mps 741 mmHg 59%
19:00 +19°C° 0 mm 1 mps 741 mmHg 63%
20:00 +18°C° 0.1 mm 2 mps 741 mmHg 66%
21:00 +17°C° 0.1 mm 2 mps 741 mmHg 69%
22:00 +16°C° 0.1 mm 2 mps 741 mmHg 71%
23:00 +16°C° 0.1 mm 3 mps 741 mmHg 77%
Show more